[[{"header":{"parameterUnit":"m.s-1","parameterCategory":1,"la1":30.2991,"la2":30.254,"lo1":-89.0895,"lo2":-89.0444,"dy":0.0017,"dx":0.0017,"nx":28,"ny":28,"refTime":"2024-10-20T03:00:00:Z","depth":0,"parameterNumber":2,"parameterNumberName":"U-component_of_WINDS"},"data":[0,0,0,0,0,0,0,0,0,0,0,0,0,0,0,0,0,0,0,0,0,0,0,0,0,0,0,0,0,0,0,0,0,0,0,0,0,0,0,0,0,0,0,0,0,0,0,0,0,0,0,0,0,0,0,0,0,0,-0.5128,-0.5128,0,-0.5178,-0.5178,-0.5179,-0.5167,-0.5166,-0.5165,-0.5164,-0.5219,-0.5221,-0.5224,0,0,0,0,0,0,0,0,0,0,0,0,0,-0.5025,-0.5027,-0.5128,-0.5128,-0.5129,-0.5177,-0.5178,-0.5179,-0.5167,-0.5166,-0.5164,-0.5163,-0.5218,-0.5221,-0.5224,0,0,0,0,0,0,0,0,0,0,0,0,0,-0.5072,-0.5028,-0.5127,-0.5129,-0.5129,-0.5177,-0.5178,-0.5179,-0.5167,-0.5166,-0.5164,-0.5163,-0.5217,-0.5221,-0.5224,-0.5276,0,0,-0.5235,-0.5237,0,0,0,0,0,0,0,0,-0.5069,-0.5076,-0.5128,-0.5129,-0.5129,-0.5164,-0.5162,-0.5212,-0.5167,-0.5153,-0.5164,-0.5162,-0.5202,-0.5207,-0.522,-0.5278,-0.5281,-0.5235,-0.5238,-0.5239,-0.524,0,0,0,0,0,0,0,-0.5066,-0.5073,-0.5147,-0.5129,-0.5129,-0.5128,-0.5133,-0.5172,-0.5185,-0.5154,-0.5153,-0.5159,-0.5202,-0.5216,-0.5221,-0.5281,-0.5235,-0.5238,-0.5241,-0.5242,-0.5386,-0.5387,0,0,0,0,0,0,-0.5062,-0.5071,-0.5146,-0.5149,-0.5095,-0.5131,-0.5136,-0.5155,-0.5185,-0.5188,-0.516,-0.5158,-0.5211,-0.5217,-0.5223,-0.5286,-0.5239,-0.5242,-0.5244,-0.5384,-0.5386,-0.5388,0,0,0,0,0,0,-0.5059,-0.5068,-0.5144,-0.511,-0.5119,-0.5134,-0.5155,-0.5156,-0.517,-0.5189,-0.5192,-0.5172,-0.521,-0.5218,-0.5263,-0.5288,-0.5244,-0.5247,-0.5382,-0.5385,-0.5387,-0.5413,0,0,0,0,0,0,-0.5056,-0.5068,-0.5087,-0.511,-0.5121,-0.5182,-0.5156,-0.5158,-0.5176,-0.5174,-0.5201,-0.5204,-0.5209,-0.5257,-0.5266,-0.5292,-0.525,-0.538,-0.5383,-0.5386,-0.541,-0.5416,-0.5422,0,0,0,0,0,-0.5053,-0.5093,-0.5088,-0.5097,-0.5145,-0.5183,-0.519,-0.5194,-0.5178,-0.5198,-0.521,-0.5203,-0.5283,-0.5262,-0.5272,-0.5299,-0.5379,-0.5382,-0.5386,-0.5408,-0.5415,-0.5422,0,0,0,0,0,0,-0.5074,-0.5096,-0.5091,-0.5139,-0.5159,-0.5181,-0.5207,-0.5202,-0.5228,-0.5225,-0.523,-0.5236,-0.5282,-0.5295,-0.5271,-0.5351,-0.5329,-0.5335,-0.5342,-0.5349,-0.5355,-0.5352,-0.5253,0,0,0,0,0,-0.5083,-0.5112,-0.513,-0.5171,-0.5181,-0.5192,-0.5209,-0.521,-0.5232,-0.5241,-0.5257,-0.5279,-0.5309,-0.5329,-0.5358,-0.5411,-0.5418,-0.5435,-0.544,-0.5445,-0.5451,-0.5481,-0.549,-0.54,-0.54,-0.54,0,0,-0.5105,-0.512,-0.5138,-0.5176,-0.5191,-0.5222,-0.52,-0.5233,-0.5256,-0.5247,-0.529,-0.5302,-0.5328,-0.5377,-0.5399,-0.5389,-0.5477,-0.545,-0.5453,-0.5457,-0.5486,-0.5495,-0.5502,-0.5403,-0.5403,-0.5402,0,0,-0.516,-0.5174,-0.521,-0.5226,-0.525,-0.5256,-0.5265,-0.5288,-0.5295,-0.5338,-0.5332,-0.536,-0.5411,-0.543,-0.5447,-0.5507,-0.5503,-0.5516,-0.5547,-0.5577,-0.5584,-0.559,-0.5614,-0.5623,-0.5522,-0.5522,-0.5522,0,-0.5185,-0.5229,-0.523,-0.5264,-0.5281,-0.5271,-0.5309,-0.5325,-0.5357,-0.537,-0.5357,-0.5422,-0.5438,-0.5492,-0.5507,-0.552,-0.5531,-0.5515,-0.5583,-0.5589,-0.5595,-0.5618,-0.5627,-0.5524,-0.5523,-0.5523,-0.5523,0,-0.5259,-0.529,-0.5316,-0.5347,-0.5366,-0.5402,-0.5409,-0.5429,-0.5428,-0.5436,-0.5481,-0.55,-0.5533,-0.5545,-0.5545,-0.56,-0.5593,-0.5581,-0.5559,-0.5605,-0.5627,-0.5636,-0.5526,-0.5525,-0.5525,-0.5524,0,0,-0.5332,-0.536,-0.537,-0.5384,-0.5409,-0.5434,-0.5469,-0.5499,-0.5518,-0.554,-0.5571,-0.5614,-0.5603,-0.5622,-0.5623,-0.5648,-0.5698,-0.5634,-0.5634,-0.5647,-0.5762,-0.5773,-0.5783,-0.5693,-0.5695,-0.5696,-0.5761,0,-0.5391,-0.5452,-0.5453,-0.551,-0.5539,-0.553,-0.5561,-0.558,-0.5588,-0.5616,-0.5625,-0.5657,-0.5639,-0.565,-0.5674,-0.5687,-0.5722,-0.5682,-0.5725,-0.5727,-0.5722,-0.5794,-0.5806,-0.5865,-0.5769,-0.577,-0.5771,0,-0.5469,-0.5493,-0.5552,-0.5572,-0.5585,-0.5613,-0.5641,-0.5666,-0.5688,-0.5693,-0.5712,-0.571,-0.5747,-0.5721,-0.5774,-0.5747,-0.5764,-0.5773,-0.5775,-0.5782,-0.5754,-0.5805,-0.5884,-0.5895,-0.5784,-0.5783,-0.5782,0,-0.5519,-0.5565,-0.5607,-0.5619,-0.5643,-0.5663,-0.5675,-0.5694,-0.5713,-0.5738,-0.575,-0.5779,-0.5796,-0.582,-0.5826,-0.5806,-0.5879,-0.5853,-0.5886,-0.5886,-0.5904,-0.5904,-0.599,-0.591,-0.591,-0.591,-0.591,0,-0.5587,-0.5625,-0.563,-0.5656,-0.5698,-0.5698,-0.574,-0.575,-0.5768,-0.5797,-0.579,-0.5817,-0.5822,-0.5851,-0.5855,-0.5899,-0.5906,-0.5913,-0.5914,-0.5915,-0.5915,-0.5929,-0.5926,-0.5913,-0.5912,-0.5912,-0.5911,0,-0.5652,-0.5656,-0.5702,-0.572,-0.5726,-0.5756,-0.5773,-0.5798,-0.5805,-0.5841,-0.585,-0.5861,-0.5895,-0.5902,-0.5942,-0.5945,-0.5999,-0.5994,-0.5991,-0.5992,-0.6025,-0.6023,-0.6126,-0.6141,-0.6049,-0.6049,-0.605,0,-0.5696,-0.5725,-0.5746,-0.5764,-0.5776,-0.5805,-0.5823,-0.5824,-0.5844,-0.5871,-0.5894,-0.5926,-0.5952,-0.6007,-0.602,-0.605,-0.6049,-0.6083,-0.6054,-0.6054,-0.6053,-0.6052,-0.6056,-0.6089,-0.609,-0.6091,-0.6092,0,-0.5776,-0.5776,-0.5803,-0.583,-0.5851,-0.5873,-0.5894,-0.5909,-0.5913,-0.5936,-0.5969,-0.599,-0.603,-0.6063,-0.6094,-0.6107,-0.6101,-0.61,-0.611,-0.6113,-0.6111,-0.6115,-0.601,-0.6099,-0.6098,-0.6098,-0.6097,-0.6097,-0.5834,-0.5859,-0.5878,-0.5907,-0.5922,-0.5941,-0.5967,-0.5975,-0.6003,-0.6035,-0.6034,-0.6071,-0.6092,-0.6133,-0.6147,-0.6178,-0.6167,-0.6181,-0.6185,-0.6189,-0.6193,-0.6103,-0.6183,-0.6183,-0.6182,-0.6182,-0.6182,0,-0.5915,-0.5926,-0.5953,-0.5982,-0.6005,-0.5994,-0.6016,-0.6037,-0.607,-0.6089,-0.6114,-0.6154,-0.6185,-0.62,-0.6231,-0.6253,-0.6251,-0.6262,-0.6262,-0.6265,-0.6199,-0.6189,-0.6262,-0.6262,-0.6262,-0.6262,-0.6262,-0.6262,-0.5961,-0.6003,-0.6006,-0.6056,-0.6067,-0.6102,-0.6116,-0.6134,-0.615,-0.6193,-0.6219,-0.6227,-0.6245,-0.6278,-0.6307,-0.631,-0.6324,-0.6336,-0.6339,-0.6278,-0.627,-0.6262,-0.6252,-0.6338,-0.6338,-0.6403,-0.6403,-0.6404]},{"header":{"parameterUnit":"m.s-1","parameterCategory":1,"la1":30.2991,"la2":30.254,"lo1":-89.0895,"lo2":-89.0444,"dy":0.0017,"dx":0.0017,"nx":28,"ny":28,"refTime":"2024-10-20T03:00:00:Z","depth":0,"parameterNumber":3,"parameterNumberName":"V-component_of_WINDS"},"data":[0,0,0,0,0,0,0,0,0,0,0,0,0,0,0,0,0,0,0,0,0,0,0,0,0,0,0,0,0,0,0,0,0,0,0,0,0,0,0,0,0,0,0,0,0,0,0,0,0,0,0,0,0,0,0,0,0,0,-1.475,-1.4752,0,-1.4902,-1.4904,-1.4906,-1.4976,-1.4976,-1.4976,-1.4976,-1.5129,-1.5133,-1.5137,0,0,0,0,0,0,0,0,0,0,0,0,0,-1.4518,-1.4522,-1.475,-1.4752,-1.4754,-1.4902,-1.4904,-1.4906,-1.4976,-1.4976,-1.4976,-1.4976,-1.5128,-1.5133,-1.5138,0,0,0,0,0,0,0,0,0,0,0,0,0,-1.4639,-1.4523,-1.475,-1.4807,-1.4814,-1.4902,-1.4904,-1.4907,-1.4976,-1.4976,-1.4976,-1.4976,-1.5126,-1.5132,-1.5138,-1.518,0,0,-1.5157,-1.516,0,0,0,0,0,0,0,0,-1.4632,-1.4648,-1.4797,-1.4803,-1.4811,-1.492,-1.4879,-1.4998,-1.4976,-1.4914,-1.4976,-1.4976,-1.5059,-1.5071,-1.51,-1.5187,-1.5194,-1.5158,-1.5162,-1.5164,-1.5166,0,0,0,0,0,0,0,-1.4624,-1.4642,-1.481,-1.4799,-1.4807,-1.4824,-1.4841,-1.4902,-1.4986,-1.492,-1.4925,-1.4943,-1.5063,-1.5094,-1.5104,-1.5196,-1.5158,-1.5163,-1.5167,-1.517,-1.5326,-1.5327,0,0,0,0,0,0,-1.4607,-1.4634,-1.4805,-1.4815,-1.4719,-1.4828,-1.4848,-1.4885,-1.4986,-1.5001,-1.4943,-1.4945,-1.5083,-1.5097,-1.511,-1.5166,-1.5164,-1.517,-1.5174,-1.5326,-1.5326,-1.5327,0,0,0,0,0,0,-1.4601,-1.4621,-1.4799,-1.4726,-1.475,-1.4833,-1.4874,-1.4888,-1.4919,-1.5003,-1.5018,-1.4958,-1.5084,-1.5101,-1.5163,-1.5172,-1.5173,-1.5179,-1.5325,-1.5326,-1.5327,-1.5279,0,0,0,0,0,0,-1.4594,-1.4619,-1.4636,-1.4726,-1.4754,-1.485,-1.4875,-1.4891,-1.493,-1.4935,-1.5022,-1.5036,-1.5085,-1.5153,-1.5169,-1.5181,-1.5184,-1.5325,-1.5326,-1.5326,-1.528,-1.5278,-1.5276,0,0,0,0,0,-1.4586,-1.4616,-1.4637,-1.4657,-1.4777,-1.485,-1.4866,-1.4923,-1.493,-1.4948,-1.5002,-1.5033,-1.5169,-1.5159,-1.5177,-1.5191,-1.5325,-1.5325,-1.5326,-1.5281,-1.5278,-1.5276,0,0,0,0,0,0,-1.4524,-1.4628,-1.4653,-1.4713,-1.4772,-1.4862,-1.4886,-1.4918,-1.4976,-1.4978,-1.5045,-1.5064,-1.512,-1.5162,-1.5149,-1.5238,-1.5249,-1.5254,-1.5208,-1.5207,-1.5205,-1.5193,-1.5189,0,0,0,0,0,-1.4517,-1.4569,-1.4657,-1.4702,-1.473,-1.4803,-1.4837,-1.4876,-1.494,-1.4965,-1.5023,-1.5083,-1.514,-1.5175,-1.5232,-1.5286,-1.5306,-1.5305,-1.5303,-1.5301,-1.5304,-1.5337,-1.5338,-1.533,-1.533,-1.533,0,0,-1.4504,-1.4567,-1.4596,-1.4691,-1.4741,-1.4793,-1.4824,-1.4876,-1.4915,-1.4973,-1.5035,-1.508,-1.5151,-1.5209,-1.5238,-1.5246,-1.5311,-1.5302,-1.53,-1.5305,-1.5338,-1.5338,-1.5339,-1.533,-1.533,-1.533,0,0,-1.4506,-1.4559,-1.4602,-1.4653,-1.473,-1.4778,-1.4788,-1.4874,-1.4906,-1.497,-1.5014,-1.5061,-1.5156,-1.5206,-1.5243,-1.5265,-1.5295,-1.5281,-1.5271,-1.5301,-1.5302,-1.5303,-1.5311,-1.5313,-1.5284,-1.5284,-1.5284,0,-1.4479,-1.4559,-1.462,-1.4671,-1.4712,-1.4767,-1.4812,-1.4857,-1.4948,-1.4974,-1.4982,-1.5104,-1.5156,-1.5227,-1.5232,-1.5261,-1.5274,-1.5272,-1.5297,-1.5299,-1.53,-1.5309,-1.5312,-1.5282,-1.5282,-1.5282,-1.5282,0,-1.4523,-1.4578,-1.4604,-1.4691,-1.4735,-1.4782,-1.4849,-1.4886,-1.4921,-1.4968,-1.5032,-1.5096,-1.5167,-1.5187,-1.5221,-1.5263,-1.5266,-1.5284,-1.5298,-1.5298,-1.5307,-1.5311,-1.5279,-1.5279,-1.528,-1.5281,0,0,-1.449,-1.4612,-1.462,-1.4661,-1.475,-1.4793,-1.4842,-1.4913,-1.4943,-1.5004,-1.5047,-1.5127,-1.5145,-1.5188,-1.5228,-1.5255,-1.5269,-1.5271,-1.5274,-1.5268,-1.5319,-1.5305,-1.5308,-1.5289,-1.529,-1.5291,-1.5314,0,-1.4505,-1.4598,-1.4654,-1.4723,-1.4775,-1.4829,-1.4872,-1.4931,-1.4976,-1.5026,-1.5076,-1.5132,-1.5152,-1.5178,-1.5207,-1.5261,-1.528,-1.526,-1.533,-1.5332,-1.5311,-1.5312,-1.5297,-1.5315,-1.5317,-1.5318,-1.5319,0,-1.4535,-1.4596,-1.467,-1.4754,-1.4778,-1.4816,-1.4885,-1.4932,-1.5,-1.5032,-1.5079,-1.512,-1.5174,-1.5183,-1.5258,-1.5243,-1.5275,-1.5306,-1.5308,-1.5317,-1.5325,-1.5322,-1.5323,-1.5325,-1.5325,-1.5324,-1.5324,0,-1.4504,-1.4604,-1.4662,-1.4695,-1.4795,-1.482,-1.4862,-1.493,-1.4969,-1.5029,-1.5056,-1.5121,-1.5156,-1.5206,-1.5263,-1.5264,-1.5333,-1.5346,-1.536,-1.5358,-1.5372,-1.5371,-1.5378,-1.5392,-1.5392,-1.5392,-1.5392,0,-1.4515,-1.4558,-1.465,-1.4685,-1.4736,-1.48,-1.4848,-1.4895,-1.4955,-1.5,-1.505,-1.5091,-1.5164,-1.5214,-1.5259,-1.5315,-1.533,-1.5357,-1.5368,-1.5353,-1.535,-1.5375,-1.5375,-1.5393,-1.5392,-1.5392,-1.5392,0,-1.4489,-1.4552,-1.4619,-1.4707,-1.4731,-1.4764,-1.484,-1.4877,-1.4925,-1.4982,-1.4999,-1.5074,-1.5136,-1.5198,-1.528,-1.5311,-1.5366,-1.5381,-1.5343,-1.535,-1.536,-1.5359,-1.5385,-1.5392,-1.54,-1.54,-1.54,0,-1.4492,-1.4527,-1.462,-1.4654,-1.4696,-1.475,-1.4791,-1.4855,-1.4895,-1.4976,-1.5002,-1.5068,-1.5124,-1.522,-1.5282,-1.5345,-1.5363,-1.5368,-1.5373,-1.5356,-1.5364,-1.5361,-1.5365,-1.5366,-1.5365,-1.5365,-1.5365,0,-1.449,-1.452,-1.4577,-1.4645,-1.4692,-1.4748,-1.4806,-1.4831,-1.4907,-1.4949,-1.5013,-1.5056,-1.5142,-1.5206,-1.5277,-1.532,-1.5355,-1.5363,-1.5369,-1.5354,-1.5331,-1.5344,-1.5338,-1.5362,-1.5362,-1.5362,-1.5362,-1.5362,-1.448,-1.4513,-1.4585,-1.4646,-1.4697,-1.475,-1.4789,-1.4843,-1.4898,-1.4973,-1.5007,-1.5072,-1.5139,-1.5239,-1.5281,-1.5332,-1.5342,-1.5351,-1.5354,-1.5355,-1.5352,-1.5322,-1.5345,-1.5346,-1.5346,-1.5346,-1.5346,0,-1.4481,-1.453,-1.4586,-1.4666,-1.4715,-1.4744,-1.481,-1.4848,-1.4905,-1.4965,-1.502,-1.5094,-1.5157,-1.5224,-1.5291,-1.5319,-1.5336,-1.5334,-1.5333,-1.5342,-1.5339,-1.5327,-1.5319,-1.5319,-1.5319,-1.5319,-1.5319,-1.5319,-1.4488,-1.4547,-1.4585,-1.467,-1.4719,-1.4783,-1.4818,-1.4867,-1.4916,-1.4997,-1.505,-1.5094,-1.5157,-1.5229,-1.5288,-1.5306,-1.5328,-1.5322,-1.5344,-1.534,-1.5342,-1.5344,-1.5333,-1.5326,-1.5326,-1.5343,-1.5343,-1.5343]}]]